Weather in Ostakhnovo

Russia / Novgorod Oblast     58°55′38″N   34°30′24″E
temp.,
°C
wind,
m/s
gust,
m/s
humid.,
%
clouds,
%
prec.,
mm/h
press.,
hPa
HPBL,
m
22 october, fri
fri2200:00+10ssw61690100 0.8 9821248
03:00+11sw61580100 1.9 9801393
06:00+10wsw8167440 0.4 9811412
09:00+7sw7167125 0.5 9831458
12:00+8sw7157016 0.1 9851618
15:00+7sw7166966 0.5 9861906
18:00+6sw71669100 0.2 9871471
21:00+5sw7167199 0.2 9891465
23 october, sat
sat2300:00+5sw7166865 0.1 9901448
03:00+3sw41297100 1.0 9921104
06:00+4sw51395100 1.8 9911323
09:00+5wsw399196 3.0 993902
12:00+6sw4977100 0.4 9951064
15:00+4wsw3887100 0.5 997923
18:00+3wsw3896100 0.6 999681
21:00+2wnw2699100 1.9 1001513
24 october, sun
sun2400:00+2nw41097100 0.8 1003595
03:00+1nw51196100 1.1 1006705
06:00+1nw51196100 0.6 1008618
09:000nnw51188100 1.4 10121019
12:00+1nnw5107764 0.1 10151043
15:00+1nnw597715 0.1 10181040
18:00−1nw4108518 0.0 1022628
21:00−2nw39895 0.0 1024425
25 october, mon
mon2500:00−3nw38885 0.0 1026281
03:00−3w25887 0.0 1027180
06:00−2wsw2688100 0.0 1027219
09:00−1sw3975100 0.0 1027392
12:00+1sw41173100 0.0 1026641
15:00+2sw51372100 0.1 1023781
18:00+2sw51485100 0.0 1022664
21:00+2sw51482100 0.0 1021690
26 october, tue
tue2600:00+2sw5138583 0.0 1020598
03:00+1sw41391100 0.0 1019494
06:00+1sw41291100 0.0 1018462
09:00+1sw41291100 0.0 1017484
12:00+3sw41082100 0.0 1015557
15:00+3sw41082100 0.0 1013626
18:00+2sw41188100 0.0 1012492
21:00+2sw41190100 0.1 1010508